Location: Dal�� Lhota
(48.7500°N, 14.0167°E)
Time: 23:20:04
(UTC+00:00)

USA 116 - Pass Details

Date: 24 September 2020
Orbit: 405 x 834 km, 97.9° (Epoch: 18 November)

Event Time Altitude Azimuth Distance (km) Brightness Sun altitude
Rises 17:53:59 0° 14° (NNE) 2,531 7.1 -10.2°
Reaches altitude 10° 17:55:56 10° 16° (NNE) 1,698 6.2 -10.5°
Maximum altitude 17:59:35 79° 104° (ESE) 550 3.6 -11.1°
Drops below altitude 10° 18:03:41 10° 191° (S) 1,906 6.5 -11.8°
Sets 18:05:59 0° 193° (SSW) 2,874 7.4 -12.1°
